This demonstration page uses our WeatherBlox Daily Observations layout. Learn more.

Left ArrowRight Arrow

41.86663, -103.66717

Hourly Observations for September 28, 2018

Temp ( °F °C ) Dew Point ( °F °C ) Humidity (%) Winds ( mph kmh ) Pressure ( in mb ) Visibility ( mi km ) Precip ( " mm )
12:53 am 00:53 Cloudy with Light Rain 46 7.8 44 6.7 93 93 NE 14 22 30.09 1019 10 16 N/A
1:19 am 01:19 Cloudy with Light Rain 45 7.2 42 5.6 90 90 NE 13 20 30.18 1022 10 16 N/A
1:53 am 01:53 Cloudy with Light Rain 45 7.2 41 5 86 86 ENE 13 20 30.09 1019 10 16 N/A
2:53 am 02:53 Cloudy with Light Rain 44 6.7 41 5 89 89 NE 16 26 30.11 1020 10 16 N/A
2:58 am 02:58 Cloudy with Light Rain 44 6.7 42 5.6 93 93 NE 16 26 30.18 1022 10 16 N/A
3:53 am 03:53 Cloudy with Light Rain 40 4.4 38 3.3 93 93 NE 18 30 30.15 1021 10 16 N/A
4:13 am 04:13 Cloudy with Light Rain 40 4.4 38 3.3 93 93 ENE 14 22 30.27 1025 10 16 N/A
4:53 am 04:53 Cloudy with Light Rain 40 4.4 37 2.8 89 89 E 12 19 30.20 1023 10 16 N/A
5:53 am 05:53 Cloudy with Light Rain 39 3.9 37 2.8 93 93 ENE 7 11 30.24 1024 10 16 N/A
6:53 am 06:53 Cloudy with Light Rain 39 3.9 36 2.2 89 89 ENE 13 20 30.28 1025 10 16 N/A
7:53 am 07:53 Cloudy with Light Snow 39 3.9 36 2.2 89 89 E 10 17 30.30 1026 9 14 N/A
8:53 am 08:53 Cloudy with Light Snow 38 3.3 37 2.8 97 97 E 10 17 30.33 1027 3 5 N/A
9:18 am 09:18 Partly Cloudy with Isolated Snow Showers 38 3.3 38 3.3 100 100 ENE 10 17 30.39 1029 3 4 N/A
9:31 am 09:31 Cloudy with Light Snow 38 3.3 38 3.3 100 100 E 9 15 30.39 1029 3 4 0.01 0.25
9:45 am 09:45 Cloudy with Light Snow 39 3.9 39 3.9 100 100 E 9 15 30.39 1029 3 5 0.01 0.25
9:53 am 09:53 Cloudy with Light Snow 39 3.9 39 3.9 100 100 E 10 17 30.35 1028 3 5 0.01 0.25
10:03 am 10:03 Cloudy with Mist and Fog 39 3.9 38 3.3 96 96 E 10 17 30.39 1029 5 8 N/A
10:42 am 10:42 Cloudy 39 4 39 4 100 100 E 10 17 30.42 1030 8 13 N/A
10:53 am 10:53 Cloudy 39 3.9 39 3.9 100 100 E 10 17 30.35 1028 10 16 N/A
11:01 am 11:01 Cloudy 39 4 39 4 100 100 E 8 13 30.42 1030 7 11 N/A
11:53 am 11:53 Cloudy 40 4.4 39 3.9 97 97 E 8 13 30.35 1028 10 16 N/A
12:43 pm 12:43 Cloudy 41 5 38 3.3 89 89 ESE 10 17 30.36 1028 10 16 N/A
12:53 pm 12:53 Cloudy 42 5.6 38 3.3 85 85 ESE 10 17 30.33 1027 10 16 N/A
1:10 pm 13:10 Cloudy 43 6 37 3 81 81 ESE 8 13 30.36 1028 10 16 N/A
1:53 pm 13:53 Cloudy 43 6.1 37 2.8 80 80 SE 12 19 30.31 1026 10 16 N/A
2:53 pm 14:53 Cloudy 43 6.1 37 2.8 80 80 SE 9 15 30.28 1026 10 16 N/A
3:53 pm 15:53 Cloudy 44 6.7 37 2.8 76 76 SE 12 19 30.27 1025 10 16 N/A
4:53 pm 16:53 Cloudy 45 7.2 36 2.2 71 71 SE 13 20 30.24 1024 10 16 N/A
5:53 pm 17:53 Cloudy 45 7.2 37 2.8 74 74 SE 10 17 30.24 1024 10 16 N/A
6:53 pm 18:53 Cloudy 45 7.2 37 2.8 74 74 SE 9 15 30.23 1024 10 16 N/A
7:53 pm 19:53 Cloudy 46 7.8 38 3.3 73 73 SE 9 15 30.21 1023 10 16 N/A
8:12 pm 20:12 Cloudy 46 7.8 37 2.8 71 71 SE 12 19 30.15 1021 10 16 N/A
8:53 pm 20:53 Cloudy 45 7.2 37 2.8 74 74 SE 12 19 30.20 1023 10 16 N/A
9:53 pm 21:53 Cloudy 46 7.8 38 3.3 73 73 SSE 15 24 30.16 1021 10 16 N/A
10:53 pm 22:53 Cloudy with Light Rain 46 7.8 38 3.3 73 73 SSE 20 31 30.13 1020 10 16 N/A
11:53 pm 23:53 Cloudy with Light Rain 45 7.2 39 3.9 80 80 SSE 13 20 30.11 1020 10 16 N/A

Powered by AerisWeather